Station TAWM4 - Tawas Point, MI Image indicating link to RSS feed of recent meteorological observations for station TAWM4


Conditions at TAWM4 as of
(1:40 am EDT)
0540 GMT on 06/17/2024:
     

Click on the graph icon in the table below to see a time series plot of the last five days of that observation.

5-day plot - Wind Direction Wind Direction (WDIR):SSW ( 200 deg true )
5-day plot - Wind Speed Wind Speed (WSPD): 2.9 kts
5-day plot - Wind Gust Wind Gust (GST): 6.0 kts
5-day plot - Atmospheric Pressure Atmospheric Pressure (PRES):29.91 in
5-day plot - Air Temperature Air Temperature (ATMP): 66.0 °F
5-day plot - Wind Speed at 10 Meters Wind Speed at 10 meters (WSPD10M): 3.9 kts
5-day plot - Wind Speed at 20 Meters Wind Speed at 20 meters (WSPD20M): 3.9 kts
5-day plot -  Wind Speed, Wind Gust and Atmospheric Pressure Combined plot of Wind Speed, Gust, and Air Pressure
Previous observations
TIME
(EDT)
5-day plot - Wind Direction
WDIR
 
5-day plot - Wind Speed
WSPD
kts
5-day plot - Wind Gust
GST
kts
5-day plot - Wave Height
WVHT
ft
5-day plot - Dominant Wave Period
DPD
sec
5-day plot - Average Wave Period
APD
sec
5-day plot - Mean Wave Direction
MWD
 
5-day plot - Atmospheric Pressure
PRES
in
5-day plot - Pressure Tendency
PTDY
in
5-day plot - Air Temperature
ATMP
°F
5-day plot - Water Temperature
WTMP
°F
5-day plot - Dew Point
DEWP
°F
5-day plot - Salinity
SAL
psu
5-day plot - Visibility
VIS
nmi
5-day plot - Tide (above MLLW)
TIDE
ft
2024-06-17 01:30 amSSW 2.9 6.0----29.91- 66.7-----
2024-06-17 01:20 am S 2.9 5.1----29.91- 67.5-----
2024-06-17 01:10 amSSW 2.9 6.0----29.91- 67.8-----
2024-06-17 01:00 am SW 4.1 6.0----29.92+0.05 68.4-----
2024-06-17 12:50 am SW 2.9 4.1----29.91- 67.6-----
2024-06-17 12:40 am SW 1.9 2.9----29.91- 66.6-----
2024-06-17 12:30 amSSW 1.9 2.9----29.90- 67.1-----
2024-06-17 12:20 amSSW 1.9 4.1----29.89- 67.5-----
2024-06-17 12:10 amSSW 1.9 4.1----29.90- 67.8-----
2024-06-17 12:00 amSSW 2.9 5.1----29.90+0.02 67.8-----
2024-06-16 11:50 pm S 1.9 5.1----29.91- 68.0-----
2024-06-16 11:40 pm S 2.9 5.1----29.90- 68.2-----
2024-06-16 11:30 pm S 4.1 7.0----29.89- 67.3-----
2024-06-16 11:20 pm SW 1.9 6.0----29.87- 66.9-----
2024-06-16 11:10 pm S 4.1 8.0----29.87- 67.3-----
2024-06-16 11:00 pm S 5.1 8.0----29.87-0.02 66.9-----
2024-06-16 10:50 pm S 6.0 8.9----29.87- 67.1-----
2024-06-16 10:40 pm S 5.1 8.9----29.88- 67.3-----
2024-06-16 10:30 pm S 5.1 7.0----29.88- 66.7-----
2024-06-16 10:20 pmSSE 2.9 6.0----29.88- 66.4-----
2024-06-16 10:10 pm S 4.1 8.0----29.88- 67.1-----
2024-06-16 10:00 pm S 6.0 8.9----29.87-0.02 67.6-----
2024-06-16 09:50 pm S 4.1 7.0----29.87- 67.5-----
2024-06-16 09:40 pm S 2.9 6.0----29.87- 67.5-----
2024-06-16 09:30 pm S 4.1 6.0----29.87- 67.5-----
2024-06-16 09:20 pm S 4.1 8.0----29.87- 67.5-----
2024-06-16 09:10 pm S 1.9 7.0----29.87- 68.0-----
2024-06-16 09:00 pm S 2.9 6.0----29.88-0.03 68.7-----
2024-06-16 08:50 pm S 2.9 5.1----29.88- 68.7-----
2024-06-16 08:40 pm S 1.9 6.0----29.89- 68.5-----
2024-06-16 08:30 pm S 2.9 5.1----29.88- 68.2-----
2024-06-16 08:20 pm S 1.9 6.0----29.88- 67.8-----
2024-06-16 08:10 pm S 1.9 5.1----29.89- 68.4-----
2024-06-16 08:00 pm S 4.1 6.0----29.89-0.04 68.2-----
2024-06-16 07:50 pm S 5.1 8.0----29.90- 68.5-----
2024-06-16 07:40 pm S 6.0 8.0----29.89- 68.4-----
2024-06-16 07:30 pm S 4.1 7.0----29.88- 68.4-----
2024-06-16 07:20 pm S 6.0 8.0----29.89- 69.1-----
2024-06-16 07:10 pm S 6.0 8.9----29.90- 69.6-----
2024-06-16 07:00 pm S 6.0 8.9----29.89-0.11 71.2-----
2024-06-16 06:50 pm S 5.1 8.0----29.89- 71.1-----
2024-06-16 06:40 pm S 6.0 8.9----29.90- 71.4-----
2024-06-16 06:30 pm S 5.1 8.0----29.89- 71.2-----
2024-06-16 06:20 pmSSE 4.1 6.0----29.89- 71.2-----
2024-06-16 06:10 pmSSE 4.1 7.0----29.90- 69.8-----
2024-06-16 06:00 pmSSE 5.1 8.0----29.91-0.10 69.8-----
2024-06-16 05:50 pmSSE 4.1 8.0----29.90- 68.4-----
2024-06-16 05:40 pm SE 6.0 8.0----29.91- 67.5-----
2024-06-16 05:30 pm SE 8.0 8.9----29.93- 68.2-----
2024-06-16 05:20 pm SE 8.0 9.9----29.91- 68.0-----
2024-06-16 05:10 pm SE 8.9 9.9----29.93- 68.0-----
2024-06-16 05:00 pm SE 8.0 9.9----29.93-0.10 68.5-----
2024-06-16 04:50 pm SE 7.0 8.0----29.91- 68.7-----
2024-06-16 04:40 pmESE 7.0 8.0----29.93- 68.4-----
2024-06-16 04:30 pmESE 7.0 8.9----29.92- 68.5-----
2024-06-16 04:20 pm E 7.0 8.9----29.95- 68.9-----
2024-06-16 04:10 pm E 5.1 7.0----29.96- 69.4-----
2024-06-16 04:00 pm E 2.9 5.1----30.00-0.06 72.5-----
2024-06-16 03:50 pmESE 1.9 2.9----30.01- 73.8-----
2024-06-16 03:40 pm- 0.0 6.0----30.02- 71.4-----
2024-06-16 03:30 pm E 4.1 6.0----30.02- 71.2-----
2024-06-16 03:20 pm E 2.9 6.0----30.01- 70.3-----
2024-06-16 03:10 pm E 5.1 7.0----30.02- 68.4-----
2024-06-16 03:00 pm E 5.1 7.0----30.01-0.07 71.4-----
2024-06-16 02:50 pm E 4.1 6.0----30.02- 70.3-----
2024-06-16 02:40 pm E 5.1 7.0----30.03- 70.3-----
2024-06-16 02:30 pm E 5.1 7.0----30.02- 70.3-----
2024-06-16 02:20 pm E 5.1 8.0----30.03- 69.4-----
2024-06-16 02:10 pmENE 4.1 9.9----30.02- 68.4-----
2024-06-16 02:00 pm E 7.0 8.0----30.03-0.07 70.2-----
2024-06-16 01:50 pm E 4.1 6.0----30.04- 72.0-----
2024-06-16 01:40 pmENE 2.9 7.0----30.03- 69.1-----
2024-06-16 01:30 pm E 6.0 7.0----30.05- 68.0-----
2024-06-16 01:20 pm E 2.9 5.1----30.06- 69.4-----
2024-06-16 01:10 pm E 1.9 4.1----30.05- 71.2-----
2024-06-16 01:00 pm E 1.9 4.1----30.06-0.05 71.4-----
2024-06-16 12:50 pmESE 1.9 2.9----30.07- 71.8-----
2024-06-16 12:40 pmESE 1.9 2.9----30.08- 71.4-----
2024-06-16 12:30 pm E 1.9 4.1----30.07- 70.2-----
2024-06-16 12:20 pm E 1.9 4.1----30.06- 70.7-----
2024-06-16 12:10 pm E 1.9 5.1----30.06- 71.2-----
2024-06-16 12:00 pm E 1.9 4.1----30.08-0.01 71.4-----
2024-06-16 11:50 amESE 1.9 2.9----30.09- 71.8-----
2024-06-16 11:40 amESE 1.0 2.9----30.09- 71.2-----
2024-06-16 11:30 am S 1.0 2.9----30.09- 71.1-----
2024-06-16 11:20 am SE 1.0 1.9----30.08- 70.3-----
2024-06-16 11:10 am SE 1.9 2.9----30.09- 69.8-----
2024-06-16 11:00 amESE 1.0 2.9----30.10+0.00 68.9-----
2024-06-16 10:50 amESE 1.9 2.9----30.08- 68.5-----
2024-06-16 10:40 amESE 1.9 4.1----30.11- 66.9-----
2024-06-16 10:30 am SE 2.9 4.1----30.09- 67.5-----
2024-06-16 10:20 am SE 2.9 4.1----30.10- 66.9-----
2024-06-16 10:10 amESE 1.0 2.9----30.09- 67.1-----
2024-06-16 10:00 amESE 1.0 2.9----30.11-0.02 67.1-----
2024-06-16 09:50 amESE 1.9 4.1----30.09- 66.4-----
2024-06-16 09:40 am SE 2.9 4.1----30.11- 66.2-----
2024-06-16 09:30 am SE 2.9 5.1----30.12- 65.5-----
2024-06-16 09:20 am SE 2.9 4.1----30.10- 65.1-----
2024-06-16 09:10 amESE 1.9 4.1----30.09- 64.8-----
2024-06-16 09:00 amESE 2.9 4.1----30.09-0.01 64.2-----
2024-06-16 08:50 am SE 2.9 4.1----30.10- 63.9-----
2024-06-16 08:40 am SE 2.9 4.1----30.10- 63.5-----
2024-06-16 08:30 am SE 2.9 5.1----30.10- 63.1-----
2024-06-16 08:20 am SE 4.1 5.1----30.11- 62.8-----
2024-06-16 08:10 am SE 1.9 5.1----30.12- 62.6-----
2024-06-16 08:00 am SE 2.9 5.1----30.10-0.03 62.2-----
2024-06-16 07:50 am SE 4.1 6.0----30.12- 60.4-----
2024-06-16 07:40 am SE 4.1 6.0----30.11- 59.0-----
2024-06-16 07:30 am SE 4.1 6.0----30.11- 59.0-----
2024-06-16 07:20 am SE 4.1 7.0----30.12- 59.0-----
2024-06-16 07:10 am SE 2.9 5.1----30.11- 59.0-----
2024-06-16 07:00 am SE 1.9 4.1----30.13-0.02 59.2-----
2024-06-16 06:50 amESE 1.9 5.1----30.11- 58.6-----
2024-06-16 06:40 am E 1.9 4.1----30.11- 58.6-----
2024-06-16 06:30 amESE 1.9 4.1----30.11- 58.5-----
2024-06-16 06:20 am E 2.9 5.1----30.11- 58.5-----
2024-06-16 06:10 amESE 2.9 4.1----30.12- 58.3-----
2024-06-16 06:00 amESE 1.9 4.1----30.10-0.04 58.5-----
2024-06-16 05:50 am SE 2.9 5.1----30.12- 58.6-----
2024-06-16 05:40 am SE 1.9 5.1----30.11- 58.6-----
2024-06-16 05:30 am SE 2.9 7.0----30.13- 58.6-----
2024-06-16 05:20 am SE 5.1 6.0----30.12- 58.6-----
2024-06-16 05:10 am SE 2.9 6.0----30.12- 58.6-----
2024-06-16 05:00 am SE 2.9 6.0----30.13-0.01 58.6-----
2024-06-16 04:50 am SE 2.9 7.0----30.13- 58.5-----
2024-06-16 04:40 am SE 4.1 7.0----30.14- 58.6-----
2024-06-16 04:30 am SE 5.1 6.0----30.12- 58.5-----
2024-06-16 04:20 amSSE 1.9 7.0----30.14- 58.5-----
2024-06-16 04:10 am SE 4.1 6.0----30.13- 58.5-----
2024-06-16 04:00 am SE 2.9 5.1----30.15+0.03 58.3-----
2024-06-16 03:50 am SE 1.9 5.1----30.14- 58.3-----
2024-06-16 03:40 amSSE 1.9 6.0----30.15- 58.5-----
2024-06-16 03:30 am S 1.9 6.0----30.15- 58.5-----
2024-06-16 03:20 am S 1.9 6.0----30.15- 58.5-----
2024-06-16 03:10 am SE 6.0 8.9----30.14- 58.5-----
2024-06-16 03:00 am SE 6.0 8.0----30.14+0.00 58.5-----
2024-06-16 02:50 am SE 6.0 7.0----30.15- 58.5-----
2024-06-16 02:40 am SE 6.0 8.0----30.14- 58.5-----
2024-06-16 02:30 am SE 4.1 7.0----30.15- 58.5-----
2024-06-16 02:20 am SE 2.9 6.0----30.13- 58.3-----
2024-06-16 02:10 am SE 4.1 8.0----30.15- 58.1-----
2024-06-16 02:00 am SE 4.1 7.0----30.14-0.01 58.1-----
2024-06-16 01:50 am SE 5.1 7.0----30.15- 58.1-----